Regional Weather Roundup
Issued by NWS Northern Indiana

Home | Current Version | Previous Version | Graphics & Text | Print | Product List | Glossary On
Versions: 1 2 3 4 5 6 7 8 9 10 11 12 13 14 15 16 17 18 19 20 21 22 23 24 25 26 27 28 29 30 31 32 33 34 35 36 37 38 39 40 41 42 43 44 45 46 47 48 49 50
000
ASUS43 KIWX 260410
RWRIWX

KIWX WEATHER ROUNDUP
NATIONAL WEATHER SERVICE NORTHERN INDIANA
1200 AM EDT SUN APR 26 2015

NOTE: "FAIR" INDICATES FEW OR NO CLOUDS BELOW 12,000 FEET WITH NO
SIGNIFICANT WEATHER AND/OR OBSTRUCTIONS TO VISIBILITY.

* THESE STATIONS ARE NOT UNDER NWS QUALITY CONTROL. THEY ALSO MAY NOT
  REPORT WEATHER SUCH AS PRECIPITATION OR FOG.

INZ001>027-260500-
NORTHERN INDIANA

CITY           SKY/WX    TMP DP  RH WIND       PRES   REMARKS
GARY*          CLOUDY    42  33  72 N5        29.84S
VALPARAISO     CLOUDY    42  38  85 NE5       29.83R
MICHIGAN CITY* CLOUDY    39  32  75 CALM      29.83S
LAPORTE*       MOCLDY    43  40  89 N5        29.82S
KNOX*          CLOUDY    41  28  60 N6        29.82R
SOUTH BEND     MOCLDY    40  35  83 NW3       29.83R
GOSHEN         MOCLDY    42  34  73 CALM      29.81R
MONTICELLO*    DRIZZLE   42  38  83 E10G16    29.78R
LOGANSPORT*    CLOUDY    41  34  75 NE6       29.79R
ROCHESTER*     CLOUDY    45  36  70 NE3       29.81R
WARSAW*        CLOUDY    41  34  75 N3        29.81R
ANGOLA*        MOCLDY    41  34  75 CALM      29.80R
FORT WAYNE     CLOUDY    41  36  82 N6        29.80R
HUNTINGTON*    CLOUDY    40  34  80 NE6       29.79R
PERU/GRISSOM   CLOUDY    42  34  74 NE10      29.78R
MARION*        CLOUDY    41  32  69 NE12      29.77R

$$
INZ028>050-260500-
CENTRAL INDIANA

CITY           SKY/WX    TMP DP  RH WIND       PRES   REMARKS
LAFAYETTE      CLOUDY    43  38  82 NE13      29.77R
KOKOMO*        MOCLDY    43  34  70 NE12      29.78R
MUNCIE*        CLOUDY    42  34  73 NE14      29.75R
INDIANAPOLIS   CLOUDY    45  39  79 NE17      29.71R

$$
MIZ043>046-050>051-056>058-064>065-071>073-077>080-260500-
SOUTHWEST LOWER MICHIGAN

CITY           SKY/WX    TMP DP  RH WIND       PRES   REMARKS
BATTLE CREEK   MOCLDY    43  27  53 NE10      29.84R
BENTON HARBOR  MOCLDY    42  31  64 NE7       29.82S
COLDWATER*     PTCLDY    42  25  50 NE7       29.81R
HILLSDALE*     CLOUDY    44  32  63 NE3       29.80R
HOLLAND        MOCLDY    47  26  44 E8        29.86R
GRAND RAPIDS   MOCLDY    43  24  47 NE10      29.86R
KALAMAZOO      MOCLDY    45  27  49 NE8       29.83S
STURGIS*       PTCLDY    43  32  65 CALM      29.80S
THREE RIVERS*  CLOUDY    45  29  53 NE8       29.82S

$$
OHZ001>008-015>018-024>025-260500-
NORTHWEST OHIO

CITY           SKY/WX    TMP DP  RH WIND       PRES   REMARKS
WAUSEON*       MOCLDY    41  30  65 NE7       29.80R
DEFIANCE       CLOUDY    43  29  57 N6        29.80R
FINDLAY        CLOUDY    42  29  59 NE9       29.77R
TOLEDO EXPRESS CLOUDY    43  28  55 NE13      29.79R
TOLEDO METCALF CLOUDY    43  29  57 NE12      29.81R
LIMA           CLOUDY    39  31  72 N10       29.77R

$$
AND FOR LAKE MICHIGAN COASTAL AND OPEN LAKE BUOY OBSERVATIONS

STATION/POSITION TEMP    WIND        PRES    VSBY  WAVE
                 AIR SEA DIR/SP/G                  HT/PER
                 (F)     (DEG/KT/KT) (MB)    (MI)  (FT/S)
CALUMET HARBOR    40     330/  9/ 12   N/A
MICHIGAN CITY     40      20/  8/  9   N/A
BURNS HARBOR      41      60/  9/ 10 1010.8S
SAINT JOSEPH      42      20/  2/  3 1010.5S
MICHIGAN CITY     39 45   50/  8/ 10   N/A           2/ 3

$$
&&


USA.gov is the U.S. government's official web portal to all federal, state and local government web resources and services.